Location: Valencia
(39.4696°N, 0.3770°W)
Time: 20:05:09
(UTC+02:00)

ISS - Visible Passes

Search period start: 23 September 2017 00:00
Search period end: 03 October 2017 00:00
Orbit: 401 x 407 km, 51.6° (Epoch: 24 September)

Date Brightness Start Highest point End Pass type
(mag) Time Alt. Az. Time Alt. Az. Time Alt. Az.
23 Sep -1.7 21:24:28 10° SSW 21:25:20 15° S 21:25:20 15° S visible
24 Sep -1.8 20:33:29 10° SSE 20:35:08 13° SE 20:36:12 12° ESE visible
24 Sep -1.2 22:08:01 10° WSW 22:08:55 17° WSW 22:08:55 17° WSW visible
25 Sep -3.9 21:15:41 10° SW 21:18:56 68° SE 21:19:31 53° E visible
26 Sep -3.0 20:23:44 10° SSW 20:26:41 32° SE 20:29:40 10° ENE visible
26 Sep -1.7 22:00:16 10° W 22:02:34 27° NW 22:02:34 27° NW visible
27 Sep -3.0 21:07:33 10° WSW 21:10:43 48° NW 21:12:44 20° NE visible
28 Sep -3.9 20:15:05 10° SW 20:18:21 87° SE 20:21:38 10° NE visible
28 Sep -1.3 21:52:54 10° WNW 21:55:11 17° NNW 21:55:24 17° NNW visible
29 Sep -1.8 20:59:51 10° W 21:02:37 25° NNW 21:05:17 11° NNE visible
30 Sep -2.6 20:07:00 10° WSW 20:10:06 39° NNW 20:13:13 10° NE visible
30 Sep -1.0 21:45:48 10° NW 21:47:16 12° NNW 21:47:42 12° N visible
01 Oct -1.2 20:52:29 10° WNW 20:54:35 16° NNW 20:56:41 10° NNE visible
02 Oct -0.9 21:38:52 10° NNW 21:39:23 10° N 21:39:39 10° N visible
